Regional Weather Roundup
Issued by NWS

Home | Current Version | Previous Version | Graphics & Text | Print | Product List | Glossary On
Versions: 1 2 3 4 5 6 7 8 9 10 11 12 13 14 15 16 17 18 19 20 21 22 23 24 25 26 27
000
ASUS45 KCYS 191410
RWRWY

WYOMING REGIONAL WEATHER ROUNDUP
NATIONAL WEATHER SERVICE CHEYENNE WY
700 AM MST SUN FEB 19 2017

NOTE:  "FAIR" INDICATES FEW OR NO CLOUDS BELOW 12,000 FEET
WITH NO SIGNIFICANT WEATHER AND/OR OBSTRUCTIONS TO VISIBILITY.

WYZ001-191500-
YELLOWSTONE NATIONAL PARK

CITY           SKY/WX    TMP DP  RH WIND       PRES   REMARKS
LK YELLOWSTONE   N/A     30  28  92 MISG      29.58R
W YELLOWSTONE  NOT AVBL

$$
WYZ002>013-054>058-071-098>099-191500-
NORTHERN WYOMING

CITY           SKY/WX    TMP DP  RH WIND       PRES   REMARKS
JACKSON        FLURRIES  34  32  93 SW8       29.60R WCI  27
CODY           FAIR      30  26  85 CALM      29.49S
GREYBULL       FAIR      40  31  70 SE9       29.50F WCI  34
WORLAND        FAIR      40  33  76 S14       29.50F WCI  32
SHERIDAN       FAIR      30  26  85 VRB5      29.46F WCI  25
BUFFALO        FAIR      44  24  45 SW10      29.49S
GILLETTE       FAIR      44  32  62 S23G30    29.50S
HULETT         FAIR      46  32  57 S15G21    29.54S
NEWCASTLE      FAIR      43  28  56 SE8       29.59F

$$
WYZ014>020-022>026-101>103-191500-
CENTRAL WYOMING

CITY           SKY/WX    TMP DP  RH WIND       PRES   REMARKS
BIG PINEY      CLOUDY    30  29  96 S8        29.63F WCI  22
PINEDALE       FLURRIES  32  32 100 SE10      29.65S WCI  24
DUBOIS         CLOUDY    34  28  80 S3        29.55R
LANDER         FAIR      30  27  88 VRB6      29.56S WCI  24
RIVERTON       FAIR      30  26  85 E6        29.56S WCI  24
CASPER         FAIR      43  30  60 SW21G28   29.60F
DOUGLAS        FAIR      42  29  59 CALM      29.61F

$$
WYZ021-027>030-104>119-191500-
SOUTHERN WYOMING

CITY           SKY/WX    TMP DP  RH WIND       PRES   REMARKS
EVANSTON       CLOUDY    34  28  79 SW13      29.64S WCI  25
KEMMERER         N/A     32  30  93 SW7       29.65S WCI  26
FORT BRIDGER   FAIR      32  30  93 SW5       29.66F WCI  27
ROCK SPRINGS   FAIR      39  29  67 S21G29    29.64S WCI  29
DIXON            N/A     34  31  88 CALM      29.75S
RAWLINS        FAIR      38  28  67 CALM      29.69F
SARATOGA       PTSUNNY   34  28  80 E8        29.71S WCI  27
LARAMIE        FAIR      27  22  81 S8        29.71S WCI  19
CHEYENNE       FAIR      44  25  47 W15       29.67R
TORRINGTON     FAIR      30  25  81 E3        29.64S
PINE BLUFFS    FAIR      27  23  86 NW7       29.68F WCI  19

$$




USA.gov is the U.S. government's official web portal to all federal, state and local government web resources and services.